Starlink 33592

operational
NORAD ID: 62765 Int'l Des: 2025-015 Owner: SPXS Country: US Constellation: starlink
LEOCIRCULAR

关于 Starlink 33592

正在加载描述...

实时位置

正在加载3D地球...

即将过境

高度历史

Altitude vs Time

uPlot chart will show altitude changes over time

两行轨道根数

1 62765U 25015H 25353.24793173 .00009610 00000-0 33649-3 0 9997
2 62765 53.1597 336.2050 0001287 85.5673 274.5475 15.30169371 52039
Epoch: Dec 19, 2025 • Age: 24 hours

当前状态

高度 475.2 km
速度 7.63 km/s
星下点 16.68°N, 172.15°E
发射日期 Jan 21, 2025
运行时间 0.9 years
类型 internet

技术详情

分类 Payload
质量 575.00 kg
干质量 530.00 kg
总质量 575.00 kg
长度 0.30 m
直径 4.10 m
跨度 29.00 m
形状 Box + pan
制造商 SPXS
平台类型 Starlink V2MO
阶段状态 In Orbit
所有者/国家 SPXS/US

大型星座

Loading constellations...